DELTA 2 R/B(1)

Last updated on Mon Feb 16 2026 00:02:14 GMT+0000 (Coordinated Universal Time)

1 20453U 90008B 26046.15089972 .00061323 00000+0 79537-3 0 9998 2 20453 35.6054 322.4081 0090984 48.0753 312.7696 15.52817677922620
UTC large
Height (km)
Speed (km/s)
/
Latitude / Longitude
Inclination (degrees)
Orbital Period (minutes)
Azimuth
Elevation
Range (km)
Doppler Factor

Next 0 passes for location: London (51.5072 / 0.1276)

Sorry there are no passes over London.